sat.trackr.live / text

‹ back to catalog

STARLINK-5572

NORAD 55378 · 2023-013AZ

PAYLOAD ACTIVE UNKNOWN

§ Identity

Operator
Country
US
Launch date
2023-01-26
Launch site
AFETR
Launch vehicle
Mass (kg)
RCS (m²)

Purposes: comms

External: N2YO · Heavens-Above · Gunter

§ Orbital elements

Epoch: 2026-09-20T13:58:53.594400Z

Period
94.27 min
Inclination
43.0026°
Eccentricity
0.0001495
Mean motion
15.27578216 rev/d
Perigee alt
482.0 km
Apogee alt
484.1 km
Semi-major
6,861.2 km
B*
1.1953e-5
RAAN
300.5311°
Arg perigee
271.0534°
Mean anomaly
89.0147°
Rev number
20,127

§ Raw data

STARLINK-55721 55378U 23013AZ  26263.58256475  .00000067  00000+0  11953-4 0  99932 55378  43.0026 300.5311 0001495 271.0534  89.0147 15.27578216201274

JSON: /api/v1/satellites/55378 · /tle

For live sub-satellite position, see the globe view (requires WebGL).

§ Visibility from observer

Set your observer location to see the next 7 days of passes ≥ 10°. The values pass through the URL so the page stays shareable.

No JS? Fill the form by hand. The geolocation button needs JavaScript.